Tony, WI

3:52 AM CST on December 03, 2016 (GMT -0600)
Rusk County

Weather History for KRCX - September, 2013

Change the Weather History Date:

Monday, September 16, 2013

  Actual Average (KPBH) Record (KPBH)
Temperature  
Mean Temperature 48 °F -  
Max Temperature 63 °F 66 °F 81 °F (2015)
Min Temperature 32 °F 47 °F 30 °F (2013)
Degree Days  
Heating Degree Days 18    
Moisture  
Dew Point 38 °F    
Average Humidity 73    
Maximum Humidity 99    
Minimum Humidity 39    
Precipitation  
Precipitation 0.00 in - - ()
Sea Level Pressure  
Sea Level Pressure 30.39 in    
Wind  
Wind Speed 2 mph (ESE)    
Max Wind Speed 7 mph    
Max Gust Speed -    
Visibility 9 miles    
Events Fog    
Averages and records for this station are not official NWS values.
T = Trace of Precipitation, MM = Missing Value Source: NWS Daily Summary

Daily Weather History Graph

Daily Weather History Graph

Search for Another Location

Airport or City:

Trip Planner

Search our weather history database for the weather conditions in past years. The results will help you decide how hot, cold, wet, or windy it might be!

Date:

Astronomy

Sep. 16, 2013 Rise Set
Actual Time 6:43 AM CDT 7:12 PM CDT
Civil Twilight 6:14 AM CDT 7:42 PM CDT
Nautical Twilight 5:39 AM CDT 8:17 PM CDT
Astronomical Twilight 5:02 AM CDT 8:53 PM CDT
Moon 5:27 PM CDT (9/16) 3:23 AM CDT (9/16)
Length of Visible Light 13h 28m
Length of Day
12h 28m
Waxing Gibbous, 90% of the Moon is Illuminated
Sep 16
Waxing Gibbous
Sep 19
Full
Sep 26
Last Quarter
Oct 4
New
Oct 11
First Quarter

Hourly Weather History & Observations

Time (CDT) Temp. Windchill Dew Point Humidity Pressure Visibility Wind Dir Wind Speed Gust Speed Precip Events Conditions
12:15 AM 39.2 °F - 38.3 °F 97% 30.35 in 10.0 mi Calm Calm - N/A   Clear
12:35 AM 37.9 °F - 37.0 °F 97% 30.35 in 10.0 mi Calm Calm - N/A   Clear
12:55 AM 38.5 °F - 37.6 °F 97% 30.36 in 10.0 mi Calm Calm - N/A   Clear
1:15 AM 38.3 °F - 37.4 °F 97% 30.36 in 10.0 mi Calm Calm - N/A   Clear
1:35 AM 36.7 °F - 35.8 °F 97% 30.37 in 10.0 mi Calm Calm - N/A   Clear
1:55 AM 36.5 °F - 35.6 °F 97% 30.37 in 1.8 mi Calm Calm - N/A   Mist
2:15 AM 35.6 °F 31.7 °F 34.9 °F 97% 30.37 in 1.0 mi North 4.6 mph - N/A   Mist
2:35 AM 35.1 °F - 34.3 °F 97% 30.37 in 2.5 mi Calm Calm - N/A   Clear
2:55 AM 35.8 °F - 35.2 °F 98% 30.37 in 0.2 mi Calm Calm - N/A Fog Fog
3:15 AM 36.5 °F - 36.0 °F 98% 30.39 in 0.8 mi Calm Calm - N/A   Mist
3:35 AM 35.6 °F - 34.9 °F 97% 30.39 in 7.0 mi Calm Calm - N/A   Clear
3:55 AM 35.1 °F - 34.7 °F 99% 30.39 in 7.0 mi Calm Calm - N/A   Scattered Clouds
4:15 AM 33.6 °F - 32.9 °F 97% 30.40 in 10.0 mi Calm Calm - N/A   Scattered Clouds
4:35 AM 33.8 °F - 33.3 °F 98% 30.40 in 3.0 mi Calm Calm - N/A   Mist
4:55 AM 34.0 °F - 33.6 °F 99% 30.41 in 10.0 mi Calm Calm - N/A   Clear
5:15 AM 33.1 °F - 32.5 °F 98% 30.41 in 10.0 mi Calm Calm - N/A   Clear
5:35 AM 33.4 °F - 32.9 °F 98% 30.42 in 10.0 mi Calm Calm - N/A   Clear
5:55 AM 33.3 °F - 32.9 °F 99% 30.42 in 10.0 mi Calm Calm - N/A   Clear
6:15 AM 33.3 °F - 32.7 °F 98% 30.42 in 4.0 mi Calm Calm - N/A   Clear
6:35 AM 32.9 °F 29.8 °F 32.4 °F 98% 30.43 in 0.2 mi NNE 3.5 mph - N/A Fog Fog
6:55 AM 33.1 °F - 32.9 °F 99% 30.44 in 0.2 mi Calm Calm - N/A Fog Fog
7:15 AM 33.8 °F - 33.6 °F 99% 30.44 in 0.2 mi Calm Calm - N/A Fog Fog
7:35 AM 34.9 °F - 34.3 °F 98% 30.44 in 1.2 mi Calm Calm - N/A   Mist
7:55 AM 36.7 °F - 36.1 °F 98% 30.44 in 10.0 mi Calm Calm - N/A   Clear
8:15 AM 38.5 °F - 37.9 °F 98% 30.44 in 10.0 mi Calm Calm - N/A   Clear
8:35 AM 40.3 °F - 39.6 °F 97% 30.45 in 10.0 mi Calm Calm - N/A   Clear
8:55 AM 41.9 °F 40.0 °F 41.0 °F 97% 30.45 in 10.0 mi ESE 3.5 mph - N/A   Clear
9:15 AM 43.9 °F - 43.2 °F 97% 30.46 in 10.0 mi Calm Calm - N/A   Clear
9:35 AM 47.3 °F - 43.7 °F 87% 30.46 in 10.0 mi ESE 3.5 mph - N/A   Clear
9:55 AM 49.5 °F - 43.2 °F 79% 30.46 in 10.0 mi East 5.8 mph - N/A   Clear
10:15 AM 50.2 °F - 41.0 °F 71% 30.46 in 10.0 mi SE 4.6 mph - N/A   Clear
10:35 AM 52.0 °F - 41.0 °F 66% 30.46 in 10.0 mi ESE 4.6 mph - N/A   Clear
10:55 AM 52.5 °F - 39.4 °F 61% 30.46 in 10.0 mi East 6.9 mph - N/A   Clear
11:15 AM 53.8 °F - 39.0 °F 57% 30.46 in 10.0 mi ENE 4.6 mph - N/A   Clear
11:35 AM 54.5 °F - 38.5 °F 55% 30.45 in 10.0 mi ESE 6.9 mph - N/A   Clear
11:55 AM 55.8 °F - 38.5 °F 52% 30.44 in 10.0 mi SE 4.6 mph - N/A   Clear
12:15 PM 56.5 °F - 38.7 °F 51% 30.44 in 10.0 mi East 6.9 mph - N/A   Clear
12:35 PM 57.4 °F - 39.0 °F 50% 30.44 in 10.0 mi East 5.8 mph - N/A   Clear
12:55 PM 58.5 °F - 37.6 °F 46% 30.43 in 10.0 mi ESE 3.5 mph - N/A   Clear
1:15 PM 59.0 °F - 38.1 °F 46% 30.43 in 10.0 mi East 5.8 mph - N/A   Clear
1:35 PM 60.1 °F - 37.6 °F 43% 30.43 in 10.0 mi ESE 4.6 mph - N/A   Clear
1:55 PM 60.1 °F - 37.0 °F 42% 30.42 in 10.0 mi Calm Calm - N/A   Clear
2:15 PM 61.0 °F - 37.4 °F 42% 30.41 in 10.0 mi South 3.5 mph - N/A   Clear
2:35 PM 61.5 °F - 38.7 °F 43% 30.41 in 10.0 mi Calm Calm - N/A   Clear
2:55 PM 61.7 °F - 36.9 °F 40% 30.40 in 10.0 mi Calm Calm - N/A   Clear
3:15 PM 61.9 °F - 37.8 °F 41% 30.39 in 10.0 mi Calm Calm - N/A   Clear
3:35 PM 61.9 °F - 38.5 °F 42% 30.39 in 10.0 mi Calm Calm - N/A   Clear
3:55 PM 63.5 °F - 38.5 °F 40% 30.37 in 10.0 mi South 4.6 mph - N/A   Clear
4:15 PM 62.8 °F - 38.8 °F 41% 30.37 in 10.0 mi SSE 3.5 mph - N/A   Clear
4:35 PM 63.3 °F - 38.8 °F 40% 30.36 in 10.0 mi Calm Calm - N/A   Clear
4:55 PM 63.1 °F - 38.1 °F 40% 30.35 in 10.0 mi South 4.6 mph - N/A   Clear
5:15 PM 63.0 °F - 38.3 °F 40% 30.35 in 10.0 mi SSE 3.5 mph - N/A   Clear
5:35 PM 62.8 °F - 38.3 °F 40% 30.34 in 10.0 mi SE 3.5 mph - N/A   Clear
5:55 PM 62.6 °F - 37.4 °F 39% 30.34 in 10.0 mi SE 5.8 mph - N/A   Clear
6:15 PM 61.5 °F - 39.7 °F 45% 30.34 in 10.0 mi South 3.5 mph - N/A   Clear
6:35 PM 60.8 °F - 39.0 °F 45% 30.34 in 10.0 mi SSE 3.5 mph - N/A   Clear
6:55 PM 59.5 °F - 39.9 °F 48% 30.33 in 10.0 mi Calm Calm - N/A   Clear
7:15 PM 57.7 °F - 40.8 °F 53% 30.33 in 10.0 mi SE 3.5 mph - N/A   Clear
7:35 PM 55.4 °F - 41.5 °F 60% 30.32 in 10.0 mi SE 4.6 mph - N/A   Clear
7:55 PM 52.3 °F - 43.3 °F 71% 30.33 in 10.0 mi SE 3.5 mph - N/A   Clear
8:15 PM 50.0 °F - 43.5 °F 78% 30.33 in 10.0 mi East 3.5 mph - N/A   Clear
8:35 PM 50.0 °F - 42.8 °F 76% 30.33 in 10.0 mi SE 3.5 mph - N/A   Clear
8:55 PM 48.9 °F - 42.1 °F 77% 30.33 in 10.0 mi ESE 4.6 mph - N/A   Clear
9:15 PM 48.0 °F - 41.2 °F 77% 30.33 in 10.0 mi ESE 4.6 mph - N/A   Clear
9:35 PM 48.2 °F - 41.4 °F 77% 30.33 in 10.0 mi ESE 4.6 mph - N/A   Clear
9:55 PM 47.5 °F - 41.0 °F 78% 30.33 in 10.0 mi ESE 4.6 mph - N/A   Clear
10:15 PM 46.8 °F - 40.6 °F 79% 30.33 in 10.0 mi ESE 3.5 mph - N/A   Clear
10:35 PM 46.6 °F - 40.1 °F 78% 30.33 in 10.0 mi ESE 4.6 mph - N/A   Clear
10:55 PM 46.4 °F 45.2 °F 40.1 °F 79% 30.33 in 10.0 mi SE 3.5 mph - N/A   Clear
11:15 PM 46.4 °F 45.2 °F 40.1 °F 79% 30.33 in 10.0 mi ESE 3.5 mph - N/A   Clear
11:35 PM 45.9 °F 43.6 °F 40.1 °F 80% 30.33 in 10.0 mi SE 4.6 mph - N/A   Clear
11:55 PM 46.4 °F 44.3 °F 39.9 °F 78% 30.33 in 10.0 mi SE 4.6 mph - N/A   Clear